Regional Weather Roundup
Issued by NWS

Home | Current Version | Previous Version | Graphics & Text | Print | Product List | Glossary On
Versions: 1 2 3 4 5 6 7 8 9 10 11 12 13 14 15 16 17 18 19 20 21 22 23 24 25 26 27 28 29 30 31 32 33 34 35 36 37 38 39 40 41 42 43 44 45 46 47 48 49 50
492
ASUS43 KOAX 211402
RWRNE

WEATHER ROUNDUP FOR NEBRASKA
NATIONAL WEATHER SERVICE OMAHA NE
900 AM CDT MON MAY 21 2018

NOTES: SATELLITE DATA IS BEING USED TO AUGMENT CLOUD COVER ABOVE
       12000 FEET.
       "FAIR" INDICATES FEW OR NO CLOUDS BELOW 12,000 FEET WITH NO
       SIGNIFICANT WEATHER AND/OR OBSTRUCTIONS TO VISIBILITY.


NEZ001>004-019>022-054>056-211500-
NEBRASKA PANHANDLE

CITY           SKY/WX    TMP DP  RH WIND       PRES   REMARKS
SCOTTSBLUFF    SUNNY     52  50  93 SE7       30.02S
ALLIANCE       SUNNY     53  51  93 S10       30.02S
CHADRON        SUNNY     57  49  74 VRB3      29.99F
GORDON         FAIR      56  49  79 SW3       30.03S
KIMBALL        FOG       47  47  99 S5        30.04R VSB 1/2
SIDNEY         CLOUDY    49  48  97 S12       30.03S FOG
$$

NEZ057>060-069>072-079>082-211500-
SOUTHWEST NEBRASKA

CITY           SKY/WX    TMP DP  RH WIND       PRES   REMARKS
NORTH PLATTE   SUNNY     56  51  84 CALM      30.06F
IMPERIAL       SUNNY     55  51  86 S10       30.06S
LEXINGTON      FOG       51  51  97 CALM      30.08S VSB 1/2
MCCOOK         SUNNY     51  50  96 E3        30.06F
OGALLALA       SUNNY     55  52  89 S6        30.05F
$$

NEZ005>010-023>029-035>040-094-211500-
NORTH CENTRAL NEBRASKA

CITY           SKY/WX    TMP DP  RH WIND       PRES   REMARKS
VALENTINE      SUNNY     56  48  74 S3        30.04F
AINSWORTH      SUNNY     58  51  79 W6        30.05S
BROKEN BOW     PTSUNNY   53  52  96 MISG      30.06S
O`NEILL        MOSUNNY   60  53  80 CALM      30.06F
ORD            FOG       49  49 100 VRB3      30.06S VSB 1/4
THEDFORD       SUNNY     54  53  99 CALM      30.06S
$$

NEZ041-046>049-061>064-073>077-083>087-211500-
SOUTH CENTRAL NEBRASKA

CITY           SKY/WX    TMP DP  RH WIND       PRES   REMARKS
GRAND ISLAND   CLOUDY    52  51  97 W5        30.09R FOG
AURORA         CLOUDY    52  52 100 NW3       30.08S FOG
HASTINGS       FOG       51  51 100 SW3       30.10R VSB 1/4
HEBRON         CLOUDY    57  52  82 CALM      30.09F
HOLDREGE       CLOUDY    51  51 100 SW3       30.09S FOG
KEARNEY        CLOUDY    50  49  96 SW6       30.10S FOG
YORK           CLOUDY    52  52 100 W7        30.09R FOG
$$

NEZ011>018-030>034-042>045-211500-
NORTHEAST NEBRASKA

CITY           SKY/WX    TMP DP  RH WIND       PRES   REMARKS
NORFOLK        MOSUNNY   56  51  84 W9        30.05F
ALBION         SUNNY     57  53  85 NW3       30.07S
BLAIR          CLOUDY    57  56  99 W6        30.05S FOG
COLUMBUS       SUNNY     57  52  83 NW10      30.07F
FREMONT        CLOUDY    58  57  97 W9        30.06S FOG
TEKAMAH        CLOUDY    57  56  96 NW6       30.04S
WAYNE          CLOUDY    56  55  96 W5        30.06R
$$

NEZ050>053-065>068-078-088>093-211500-
SOUTHEAST NEBRASKA

CITY           SKY/WX    TMP DP  RH WIND       PRES   REMARKS
LINCOLN        CLOUDY    57  52  83 NW6       30.08S
OMAHA EPPLEY   CLOUDY    58  56  93 CALM      30.05S FOG
BEATRICE       CLOUDY    57  54  88 W8        30.09R
FALLS CITY     CLOUDY    59  55  87 W7        30.06S
NEBRASKA CITY  CLOUDY    58  58 100 W7        30.07R
PLATTSMOUTH    CLOUDY    57  57  99 W7        30.06S FOG
$$

NEZ044-045-051>053-067-211500-
OMAHA AREA

CITY           SKY/WX    TMP DP  RH WIND       PRES   REMARKS
OMAHA EPPLEY   CLOUDY    58  56  93 CALM      30.05S FOG
BLAIR          CLOUDY    57  56  99 W6        30.05S FOG
FREMONT        CLOUDY    58  57  97 W9        30.06S FOG
MILLARD        CLOUDY    58  56  92 W5        30.06S FOG
PLATTSMOUTH    CLOUDY    57  57  99 W7        30.06S FOG
WAHOO          CLOUDY    57  53  87 NW8       30.07S
$$




USA.gov is the U.S. government's official web portal to all federal, state and local government web resources and services.